Flag for Germany Weather past 2 weeks in Wismar, Mecklenburg-Western Pomerania, Germany

Now
65 °F

Partly sunny.


Feels Like: 65 °F
Forecast: 49 / 61 °F
Wind: 5 mph from South

Location: Schwerin

Current Time: May 3, 2015 at 5:57:50 PM

Latest Report: May 3, 2015 at 4:00 PM


Visibility: 18 mi

Pressure: 29.74 "Hg

Humidity: 35%

Dew point: 36 °F

Location of WismarLocation

Historic Weather in Wismar — Graph

°F

Wismar temperature yesterday

Maximum temperature yesterday: 55 °F (at 4:00 PM)
Minimum temperature yesterday: 37 °F (at 6:00 AM)
Average temperature yesterday: 46 °F

Past Weeks' High & Low Weather Summary

 TemperatureHumidityPressure
High65 °F (Apr 21, 4:00 PM)100% (Apr 24, 4:00 AM)30.34 "Hg (Apr 24, 4:00 AM)
Low34 °F (Apr 29, 6:00 AM)31% (Apr 21, 1:00 PM)29.68 "Hg (Apr 27, 6:00 AM)
Average49 °F71%29.98 "Hg
* Reported Apr 18 4:00 PM — May 3 4:00 PM, Wismar, Weather by CustomWeather, © 2015

Note: Actual official high and low records may vary slightly from our data, if they occured in-between our weather recording intervals... More about our weather records

Advertising

Wismar weather history for previous 24 hours

 ConditionsComfort  
Time TempWeatherWind HumidityBarometerVisibility
4:00 PM
Sun, May 3
65 °FPartly sunny.5 mph35%29.74 "Hg18 mi
3:00 PM64 °FPassing clouds.6 mph37%29.76 "Hg19 mi
2:00 PM63 °FPassing clouds.6 mph39%29.78 "Hg18 mi
1:00 PM61 °FScattered clouds.6 mph39%29.81 "Hg19 mi
12:00 PM59 °FPassing clouds.6 mph42%29.83 "Hg22 mi
11:00 AM56 °FPassing clouds.6 mph47%29.85 "Hg25 mi
10:00 AM53 °FPartly sunny.3 mph54%29.88 "Hg17 mi
9:00 AM49 °FPassing clouds.3 mph67%29.89 "Hg14 mi
8:00 AM45 °FSunny.3 mph74%29.88 "Hg16 mi
7:00 AM43 °FScattered clouds.3 mph80%29.88 "Hg14 mi
6:00 AM41 °FPassing clouds.3 mph86%29.89 "Hg11 mi
4:00 AM42 °FPassing clouds.3 mph79%29.90 "Hg15 mi
3:00 AM43 °FPassing clouds.5 mph78%29.90 "Hg17 mi
2:00 AM40 °FPassing clouds.2 mph87%29.92 "Hg8 mi
1:00 AM40 °FClear.2 mph89%29.93 "Hg8 mi
12:00 AM42 °FFog.2 mph87%29.93 "Hg3 mi
10:00 PM
Sat, May 2
46 °FPassing clouds.1 mph79%29.92 "Hg8 mi
9:00 PM49 °FOvercast.1 mph69%29.91 "Hg11 mi
8:00 PM51 °FScattered clouds.3 mph62%29.90 "Hg18 mi
7:00 PM53 °FOvercast.2 mph54%29.89 "Hg18 mi
6:00 PM53 °FOvercast.5 mph58%29.90 "Hg16 mi
Weather by CustomWeather, © 2015

See weather overviewHow to use our weather pages